Date String (YYYY-MM-DD hh:mm:ss) UTC,Instrument flags,absolute air pressure of the measurement (hPa),sample flow rate (lpm),inlet stack bypass flow (lpm),air temperature of the measurement (°C),ambient temperature measured by the external sensor (°C),aerosol sample conditioner tube jacket temperature (°C),OPC LED temperature (°C),internal box temperature (°C),relative humidity of the measurement (%),span deviation,mass concentration of particles derived from Lorenz-Mie calculation of OPC scattering (μg/m³),mass concentration of particles derived from Lorenz-Mie calculation of OPC scattering (μg/m³),mass concentration of particles derived from Lorenz-Mie calculation of OPC scattering (μg/m³)
DateTimeUTC,F1_M11,P_M11,Q1_M11,Q2_M11,T1_M11,T2_M11,T3_M11,T4_M11,T5_M11,U1_M11,ZSPAN_M11,X0_M11,X2_M11,X1_M11
2023-08-09 09:00:00,SystemResetWarning,0830.6,4.99,000.00,029.5,025.6,000.0,038.2,030.6,25.1,0000.0,0009.75,0004.85,0004.24
2023-08-09 09:01:00,SystemResetWarning,0830.5,5.00,000.00,029.4,026.0,000.0,038.2,030.7,25.1,0000.0,0009.61,0004.78,0004.21
2023-08-09 09:02:00,SystemResetWarning,0830.6,5.01,000.00,029.4,026.4,000.0,038.2,030.8,25.2,0000.0,0009.82,0004.76,0004.21
2023-08-09 09:03:00,SystemResetWarning,0830.5,4.99,000.00,029.4,026.7,000.0,038.2,030.8,25.2,0000.0,0009.87,0004.72,0004.20
2023-08-09 09:04:00,SystemResetWarning,0830.5,4.99,000.00,029.4,027.0,000.0,038.1,030.9,25.2,0000.0,0010.02,0004.69,0004.18
2023-08-09 09:05:00,SystemResetWarning,0830.5,5.01,000.00,029.4,027.2,000.0,038.1,030.9,25.2,0000.0,0010.31,0004.68,0004.16
2023-08-09 09:06:00,SystemResetWarning,0830.5,5.02,000.00,029.4,027.4,000.0,038.1,030.9,25.2,0000.0,0010.86,0004.67,0004.15
2023-08-09 09:07:00,SystemResetWarning,0830.4,4.99,000.00,029.4,027.5,000.0,038.1,030.9,25.2,0000.0,0010.79,0004.63,0004.15
2023-08-09 09:08:00,SystemResetWarning,0830.5,4.99,000.00,029.4,027.6,000.0,038.1,030.9,25.2,0000.0,0010.39,0004.63,0004.15
2023-08-09 09:09:00,SystemResetWarning,0830.4,5.00,000.00,029.4,027.7,000.0,038.1,031.0,25.2,0000.0,0010.36,0004.63,0004.15
2023-08-09 09:10:00,SystemResetWarning,0830.4,5.00,000.00,029.4,027.8,000.0,038.1,031.0,25.2,0000.0,0010.22,0004.67,0004.16
2023-08-09 09:11:00,SystemResetWarning,0830.4,5.01,000.00,029.4,027.9,000.0,038.1,031.0,25.2,0000.0,0010.21,0004.65,0004.16
2023-08-09 09:12:00,SystemResetWarning,0830.5,5.00,000.00,029.4,027.9,000.0,038.1,031.0,25.2,0000.0,0010.09,0004.68,0004.17
2023-08-09 09:13:00,SystemResetWarning,0830.4,5.01,000.00,029.5,028.0,000.0,038.1,031.0,25.1,0000.0,0009.74,0004.70,0004.18
2023-08-09 09:14:00,SystemResetWarning,0830.3,5.00,000.00,029.5,028.0,000.0,038.1,031.1,25.1,0000.0,0009.77,0004.71,0004.17
2023-08-09 09:15:00,SystemResetWarning,0830.3,4.99,000.00,029.5,028.1,000.0,038.1,031.1,25.2,0000.0,0010.02,0004.75,0004.18
2023-08-09 09:16:00,SystemResetWarning,0830.3,4.99,000.00,029.5,028.1,000.0,038.1,031.1,25.1,0000.0,0010.27,0004.75,0004.19
2023-08-09 09:17:00,SystemResetWarning,0830.2,4.99,000.00,029.5,028.1,000.0,038.1,031.1,25.0,0000.0,0009.95,0004.73,0004.19
2023-08-09 09:18:00,SystemResetWarning,0830.3,5.00,000.00,029.5,028.1,000.0,038.1,031.1,25.0,0000.0,0009.24,0004.73,0004.19
2023-08-09 09:19:00,SystemResetWarning,0830.3,5.01,000.00,029.5,028.1,000.0,038.2,031.1,25.0,0000.0,0009.08,0004.70,0004.19
2023-08-09 09:20:00,SystemResetWarning,0830.2,5.01,000.00,029.6,028.2,000.0,038.2,031.1,25.0,0000.0,0009.00,0004.70,0004.18
2023-08-09 09:21:00,SystemResetWarning,0830.3,5.01,000.00,029.6,028.2,000.0,038.2,031.1,24.9,0000.0,0009.03,0004.73,0004.18
2023-08-09 09:22:00,SystemResetWarning,0830.3,4.99,000.00,029.6,028.2,000.0,038.2,031.1,24.9,0000.0,0008.99,0004.73,0004.17
2023-08-09 09:23:00,SystemResetWarning,0830.3,4.99,000.00,029.6,028.2,000.0,038.2,031.1,24.9,0000.0,0009.14,0004.73,0004.17
2023-08-09 09:24:00,SystemResetWarning,0830.3,5.00,000.00,029.6,028.2,000.0,038.2,031.2,24.9,0000.0,0009.44,0004.75,0004.17
2023-08-09 09:25:00,SystemResetWarning,0830.2,5.00,000.00,029.6,028.2,000.0,038.2,031.2,24.9,0000.0,0009.41,0004.71,0004.18
2023-08-09 09:26:00,SystemResetWarning,0830.2,5.01,000.00,029.6,028.2,000.0,038.2,031.2,24.9,0000.0,0009.13,0004.70,0004.18
2023-08-09 09:27:00,SystemResetWarning,0830.3,5.01,000.00,029.6,028.2,000.0,038.2,031.2,24.9,0000.0,0008.49,0004.70,0004.18
2023-08-09 09:28:00,SystemResetWarning,0830.2,5.01,000.00,029.6,028.3,000.0,038.3,031.2,24.9,0000.0,0008.61,0004.73,0004.19
2023-08-09 09:29:00,SystemResetWarning,0830.3,5.00,000.00,029.7,028.3,000.0,038.3,031.2,24.9,0000.0,0008.86,0004.77,0004.21
2023-08-09 09:30:00,SystemResetWarning,0830.3,4.99,000.00,029.7,028.3,000.0,038.3,031.3,24.9,0000.0,0009.16,0004.81,0004.24
2023-08-09 09:31:00,SystemResetWarning,0830.2,5.00,000.00,029.7,028.3,000.0,038.3,031.3,24.9,0000.0,0009.32,0004.83,0004.26
2023-08-09 09:32:00,SystemResetWarning,0830.2,5.00,000.00,029.7,028.3,000.0,038.3,031.3,24.9,0000.0,0009.28,0004.83,0004.29
2023-08-09 09:33:00,SystemResetWarning,0830.2,5.00,000.00,029.7,028.3,000.0,038.3,031.3,24.9,0000.0,0009.33,0004.84,0004.31
2023-08-09 09:34:00,SystemResetWarning,0830.2,5.00,000.00,029.7,028.3,000.0,038.3,031.3,24.9,0000.0,0009.27,0004.86,0004.33
2023-08-09 09:35:00,SystemResetWarning,0830.2,5.00,000.00,029.7,028.4,000.0,038.3,031.3,24.9,0000.0,0008.90,0004.85,0004.34
2023-08-09 09:36:00,SystemResetWarning,0830.2,5.01,000.00,029.7,028.4,000.0,038.4,031.3,24.9,0000.0,0008.77,0004.88,0004.35
2023-08-09 09:37:00,SystemResetWarning,0830.3,5.00,000.00,029.7,028.4,000.0,038.4,031.3,24.9,0000.0,0008.67,0004.88,0004.37
2023-08-09 09:38:00,SystemResetWarning,0830.2,5.00,000.00,029.7,028.4,000.0,038.4,031.3,24.9,0000.0,0008.56,0004.88,0004.39
2023-08-09 09:39:00,SystemResetWarning,0830.2,5.00,000.00,029.8,028.4,000.0,038.4,031.3,24.9,0000.0,0008.41,0004.86,0004.39
2023-08-09 09:40:00,SystemResetWarning,0830.2,5.00,000.00,029.8,028.4,000.0,038.4,031.3,24.9,0000.0,0008.73,0004.84,0004.40
2023-08-09 09:41:00,SystemResetWarning,0830.2,5.00,000.00,029.8,028.4,000.0,038.4,031.4,24.9,0000.0,0009.46,0004.88,0004.40
2023-08-09 09:42:00,SystemResetWarning,0830.1,5.00,000.00,029.8,028.4,000.0,038.4,031.4,24.8,0000.0,0009.29,0004.88,0004.40
2023-08-09 09:43:00,SystemResetWarning,0830.2,4.99,000.00,029.8,028.4,000.0,038.4,031.3,24.8,0000.0,0010.10,0004.91,0004.40
2023-08-09 09:44:00,SystemResetWarning,0830.1,4.99,000.00,029.8,028.4,000.0,038.4,031.4,24.8,0000.0,0010.10,0004.93,0004.41
2023-08-09 09:45:00,SystemResetWarning,0830.2,5.01,000.00,029.8,028.5,000.0,038.5,031.4,24.8,0000.0,0010.03,0004.93,0004.42
2023-08-09 09:46:00,SystemResetWarning,0830.2,5.01,000.00,029.8,028.5,000.0,038.5,031.4,24.7,0000.0,0010.13,0004.96,0004.43
2023-08-09 09:47:00,SystemResetWarning,0830.3,5.00,000.00,029.8,028.5,000.0,038.5,031.4,24.7,0000.0,0010.22,0005.00,0004.43
2023-08-09 09:48:00,SystemResetWarning,0830.2,5.00,000.00,029.8,028.5,000.0,038.5,031.4,24.7,0000.0,0010.30,0005.01,0004.43
2023-08-09 09:49:00,SystemResetWarning,0830.3,4.99,000.00,029.9,028.5,000.0,038.5,031.4,24.7,0000.0,0010.74,0005.03,0004.43
2023-08-09 09:50:00,SystemResetWarning,0830.2,5.00,000.00,029.9,028.5,000.0,038.5,031.4,24.6,0000.0,0010.80,0005.04,0004.43
2023-08-09 09:51:00,SystemResetWarning,0830.2,5.00,000.00,029.9,028.5,000.0,038.5,031.4,24.6,0000.0,0010.58,0005.04,0004.43
2023-08-09 09:52:00,SystemResetWarning,0830.2,5.00,000.00,029.9,028.5,000.0,038.5,031.4,24.6,0000.0,0009.52,0004.99,0004.43
2023-08-09 09:53:00,SystemResetWarning,0830.1,5.00,000.00,029.9,028.5,000.0,038.5,031.5,24.6,0000.0,0009.73,0005.00,0004.43
2023-08-09 09:54:00,SystemResetWarning,0830.2,5.00,000.00,029.9,028.6,000.0,038.5,031.5,24.5,0000.0,0008.96,0004.98,0004.43
2023-08-09 09:55:00,SystemResetWarning,0830.2,5.00,000.00,029.9,028.6,000.0,038.6,031.5,24.5,0000.0,0008.84,0004.97,0004.44
2023-08-09 09:56:00,SystemResetWarning,0830.2,5.00,000.00,029.9,028.6,000.0,038.6,031.5,24.5,0000.0,0008.87,0004.97,0004.42
2023-08-09 09:57:00,SystemResetWarning,0830.2,5.00,000.00,029.9,028.6,000.0,038.6,031.5,24.4,0000.0,0008.78,0004.97,0004.41
2023-08-09 09:58:00,SystemResetWarning,0830.2,5.00,000.00,030.0,028.6,000.0,038.6,031.5,24.4,0000.0,0009.24,0004.96,0004.42
2023-08-09 09:59:00,SystemResetWarning,0830.3,5.00,000.00,030.0,028.7,000.0,038.6,031.5,24.3,0000.0,0009.65,0005.01,0004.42
